Location: Heathcote
(40.9845°N, 73.7746°W)
Time: 11:49:36
(UTC+00:00)

Cosmos 1939 Rocket - Pass Details

Date: 29 October 2020
Orbit: 532 x 584 km, 97.4° (Epoch: 01 December)

Event Time Altitude Azimuth Distance (km) Brightness Sun altitude
Rises 23:16:05 0° 174° (S) 2,730 6.4 -16.0°
Reaches altitude 10° 23:18:14 10° 177° (S) 1,831 5.5 -16.4°
Maximum altitude 23:22:09 64° 259° (W) 609 3.2 -17.2°
Drops below altitude 10° 23:26:03 10° 342° (NNW) 1,817 5.6 -17.9°
Sets 23:28:11 0° 345° (NNW) 2,707 6.5 -18.3°
